{"data":{"norad_id":48646,"intl_designator":"2021-044J","name":"STARLINK-2732","alt_names":[],"object_type":"PAYLOAD","status":"ACTIVE","operator":null,"country":"US","launch_date":"2021-05-26","launch_site_code":"AFETR","launch_vehicle":null,"mission":null,"orbit_class":"UNKNOWN","rcs_meters":null,"size_class":null,"mass_kg":null,"dimensions":null,"purposes":["comms"],"wikipedia_slug":null,"has_3d_model":false,"image_url":null,"decayed_at":null,"tle_current":{"epoch":"2026-09-19T19:11:05.968896Z","epoch_age_seconds":97826,"freshness":"FRESH","line1":"1 48646U 21044J   26262.79937464  .00002133  00000+0  80480-4 0  9998","line2":"2 48646  53.1607 290.5346 0001146  75.5225 284.5903 15.31694430293572","mean_motion":15.3169443,"eccentricity":0.0001146,"inclination_deg":53.1607,"raan_deg":290.5346,"arg_perigee_deg":75.5225,"mean_anomaly_deg":284.5903,"bstar":8.048e-5,"rev_number":29357,"period_min":94.01352983963,"perigee_km":469.97171594966,"apogee_km":471.54148236259,"semimajor_km":6848.8935991561,"source":"CELESTRAK","updated_at":"2026-09-20T09:00:39.140967Z"}}}